Theta_e
330 338 339 337 336 335 335 336 336 335 333 332 333 333 332 330 329 328 326 326 326 329 332 333 331 328 330 329 321 318 318 315 315 314 315 320 326 332 334 335 335 335
329 336 338 339 337 335 334 334 336 335 333 334 335 336 334 330 329 328 327 325 324 326 330 331 328 326 329 330 324 321 320 316 315 315 316 319 326 335 338 338 337 337
327 331 335 338 339 337 335 334 335 335 333 333 334 336 336 332 330 329 327 326 324 323 325 328 326 324 327 330 327 324 321 317 314 315 319 321 326 337 341 339 339 338
326 327 329 334 338 338 336 335 335 334 333 332 331 334 335 333 331 331 330 329 326 323 323 325 326 323 325 329 329 325 322 319 315 316 324 327 328 336 341 340 338 334
324 325 325 329 336 339 338 336 334 333 333 333 330 331 334 333 333 332 332 331 330 327 323 323 324 322 323 327 329 329 328 323 316 317 326 330 328 331 337 338 333 329
322 324 324 325 332 338 339 338 336 334 333 333 332 332 333 334 333 333 334 332 330 328 323 321 323 321 320 324 330 334 333 326 318 319 325 328 325 324 330 333 329 328
322 324 325 323 328 336 339 339 337 335 335 333 334 334 334 335 334 334 334 332 329 328 325 321 321 321 322 328 334 336 335 329 321 320 323 325 324 323 327 331 330 332
321 323 325 325 327 333 337 339 337 336 335 335 335 335 334 335 335 334 335 333 329 329 328 324 322 321 325 331 334 334 334 332 325 321 322 325 326 324 326 330 332 335
321 322 324 326 327 330 334 338 338 336 336 336 336 336 335 334 334 335 336 335 332 331 330 328 325 322 322 325 328 330 331 329 326 323 322 326 330 327 326 330 332 335
321 320 321 325 327 329 332 336 338 337 336 335 336 336 336 334 334 334 336 335 333 332 330 328 327 324 321 322 324 326 327 325 324 323 322 325 329 327 327 331 333 334
319 319 320 322 327 330 331 334 337 338 336 335 336 336 336 334 332 333 335 336 334 334 331 326 324 323 322 323 325 325 325 324 322 322 322 322 323 326 329 333 334 333
319 318 319 321 326 330 332 332 335 338 337 335 335 335 335 335 332 332 335 336 335 335 333 329 326 324 322 322 324 325 325 325 323 322 321 320 320 323 328 333 335 334
319 318 319 322 327 330 331 332 333 336 338 337 335 335 335 335 334 333 334 336 336 335 334 332 331 329 325 321 322 324 325 326 327 324 321 320 320 322 326 331 335 335
320 321 320 323 327 329 331 331 332 335 337 337 335 335 336 335 334 333 334 336 337 336 334 333 333 333 330 323 320 321 323 325 328 328 326 323 321 322 325 328 332 335
322 324 325 327 330 331 331 331 332 334 336 337 336 335 336 336 334 332 334 336 337 337 335 334 334 335 332 326 321 319 320 322 325 329 331 328 324 324 326 327 329 332
320 321 323 327 331 333 333 332 332 334 335 337 337 335 336 338 337 333 334 337 338 337 335 335 335 335 334 330 325 321 320 320 321 324 327 326 324 324 326 327 328 330
320 320 321 324 329 332 333 333 333 334 336 337 337 336 336 338 338 337 337 337 338 337 336 336 336 335 335 333 330 327 325 323 321 321 322 322 322 323 326 327 328 330
322 323 324 326 329 329 329 332 334 335 336 337 338 337 335 335 336 337 338 339 338 338 338 338 337 335 334 334 333 332 330 327 324 323 322 321 321 323 326 327 328 330
326 326 327 328 328 328 327 328 332 334 336 337 337 337 336 336 335 335 338 339 339 339 338 337 335 335 334 333 333 334 334 331 328 325 323 322 322 324 328 330 330 331
327 328 329 329 328 328 327 326 327 330 333 335 337 337 337 337 336 336 338 339 338 338 338 335 333 334 334 332 332 334 335 332 330 330 330 329 328 329 331 333 333 333
325 328 331 332 332 331 329 326 324 324 329 334 336 337 337 337 336 337 338 338 337 337 337 336 334 334 334 332 331 332 332 330 331 335 336 335 333 331 333 335 335 334
324 326 330 333 333 333 331 328 324 321 327 334 336 336 337 337 337 337 337 338 338 336 336 337 336 334 334 333 331 332 331 329 332 337 339 338 334 333 335 338 339 339
325 324 328 331 332 332 331 327 323 322 328 334 336 336 336 337 337 336 336 336 337 337 336 337 337 336 336 334 332 332 331 329 333 339 339 336 333 332 331 333 337 339
327 325 326 329 331 330 330 327 326 330 334 336 336 336 336 336 335 335 335 335 335 336 336 336 336 337 336 336 335 334 332 331 334 337 335 331 332 331 328 330 335 335
329 328 325 326 327 327 328 329 331 334 335 335 335 335 336 336 336 336 336 336 335 335 335 336 336 336 335 335 334 332 332 334 335 333 331 331 333 332 331 335 337 332
329 329 326 324 325 326 327 329 332 333 331 330 330 331 333 336 337 337 336 336 335 335 335 335 335 334 333 333 331 330 332 334 334 331 331 333 335 334 336 338 337 333
Wind_Speed
38 47 51 51 50 47 43 44 45 44 41 40 40 38 32 29 31 34 35 35 36 37 37 36 36 39 41 37 34 32 29 28 28 26 26 26 24 23 22 22 22 22
37 43 48 51 51 48 45 44 45 45 43 41 42 41 35 30 32 34 34 33 34 35 36 35 35 40 42 40 36 33 30 29 29 28 27 27 26 25 25 24 23 23
37 39 43 49 51 51 48 46 46 47 45 43 42 42 39 35 34 33 31 31 32 33 35 34 35 41 43 41 37 34 32 30 30 29 28 28 27 26 26 26 25 24
36 36 38 44 49 51 50 48 49 50 49 46 43 42 40 38 37 34 30 30 31 32 34 35 37 41 43 41 37 34 33 32 31 29 29 29 28 28 28 27 26 26
35 35 34 39 46 51 52 52 52 52 51 48 44 42 41 40 38 34 31 31 32 30 32 35 38 39 41 40 37 34 32 32 33 31 30 31 29 29 29 29 27 26
35 34 33 35 42 49 53 54 53 52 51 49 46 44 43 41 39 35 32 31 30 29 30 36 39 38 40 40 36 34 32 32 33 32 32 32 30 29 29 29 28 26
36 35 34 34 39 46 52 54 53 52 51 49 47 45 44 42 39 36 34 30 28 28 29 34 39 39 40 40 37 34 34 33 33 33 34 34 31 29 29 29 28 26
36 35 34 35 37 42 49 53 53 52 51 49 48 46 45 43 40 38 36 31 29 30 30 32 37 39 40 40 38 36 35 34 34 34 35 34 32 29 28 28 28 26
34 34 35 36 37 40 45 51 53 52 51 50 49 47 47 45 42 40 38 34 31 32 31 31 34 37 40 41 39 38 37 36 36 35 35 34 32 30 28 28 28 27
34 34 34 36 38 39 43 48 51 52 52 52 50 48 48 46 43 41 39 34 32 31 30 30 32 35 39 40 40 39 38 38 37 36 35 34 32 31 29 29 29 28
35 34 34 36 38 39 41 44 49 51 52 52 51 49 49 48 45 41 39 36 33 30 28 28 31 34 37 39 39 39 39 39 38 37 36 35 33 32 31 30 30 29
36 35 36 37 38 39 39 41 45 50 52 53 52 50 50 49 46 41 39 38 35 32 29 28 29 31 35 38 39 39 39 39 39 37 36 36 35 34 33 33 32 31
39 37 37 38 39 39 38 38 42 49 53 53 52 51 51 51 47 42 40 39 38 36 34 31 30 29 31 36 39 39 40 40 39 38 37 37 36 35 34 34 34 32
40 38 37 39 40 39 38 38 40 45 50 52 52 51 51 51 48 44 42 41 40 39 37 35 32 29 29 33 37 38 40 40 39 38 37 37 36 36 35 35 35 34
38 37 37 39 41 40 38 38 39 42 47 50 53 53 52 52 49 45 43 43 42 41 39 36 35 32 29 30 34 37 39 40 39 38 37 37 37 36 35 35 35 35
37 37 37 39 40 39 38 38 39 42 44 48 52 55 53 51 50 48 46 44 42 41 40 38 37 34 32 31 32 35 37 38 39 38 38 37 37 36 35 34 34 35
37 36 38 40 41 38 36 37 40 42 44 45 50 54 54 49 46 47 47 44 42 42 42 40 37 34 33 33 33 33 35 37 38 38 38 38 37 36 35 34 34 34
36 36 38 41 42 39 36 36 39 42 44 45 47 51 53 51 46 45 46 46 43 41 41 39 36 35 35 35 35 34 35 35 36 37 38 38 37 36 36 36 34 33
35 37 39 42 42 40 37 36 37 40 42 45 46 47 50 52 50 47 48 48 44 42 41 39 37 37 38 37 37 36 35 34 35 36 37 37 36 35 36 37 35 33
36 39 41 43 44 42 40 39 39 39 40 43 46 47 49 51 52 50 48 48 46 43 42 42 41 40 38 37 38 38 36 34 35 36 37 36 34 32 35 37 36 33
38 41 43 43 44 43 41 41 42 40 39 41 45 47 48 50 52 53 50 48 48 46 45 45 43 41 40 39 39 39 37 36 37 39 39 37 34 33 34 35 35 34
39 41 42 41 42 42 40 41 43 41 38 40 44 46 47 48 50 52 52 52 52 51 50 48 46 44 43 42 42 41 39 38 41 42 41 39 38 36 35 34 35 35
37 38 40 40 40 41 41 41 41 40 38 39 42 44 46 46 45 46 50 52 53 53 52 51 49 47 45 44 43 42 41 42 44 44 42 42 43 41 38 37 36 34
35 33 34 37 37 37 38 38 38 39 40 39 41 42 42 41 40 41 43 45 47 48 51 53 53 50 47 45 43 43 43 44 45 45 45 46 46 43 39 38 36 34
33 32 30 32 35 35 34 35 37 39 38 36 36 37 37 37 37 38 40 40 40 42 45 50 53 51 48 45 44 43 45 45 45 47 48 48 46 43 39 37 35 34
30 32 29 28 32 34 34 34 34 33 31 32 33 32 32 34 36 38 39 39 38 39 42 46 49 50 47 46 45 44 45 46 46 47 47 46 45 42 40 37 35 34
Wind_Direction
229 222 221 221 219 217 217 219 220 221 222 222 219 217 216 219 223 224 226 227 228 229 231 231 234 237 234 229 227 225 223 227 230 230 229 228 227 227 230 233 234 237
231 225 224 224 223 221 220 222 222 221 222 224 222 219 218 221 224 225 227 229 230 231 231 231 234 236 232 228 228 227 223 223 227 229 229 230 230 230 232 235 237 240
233 229 226 225 224 222 221 220 222 223 224 225 226 224 221 222 227 227 227 229 231 232 231 229 231 234 230 226 227 228 226 224 226 227 228 230 233 234 235 237 239 244
234 233 229 228 227 225 222 220 220 224 225 225 228 230 226 225 227 227 227 229 230 232 229 225 228 230 226 224 226 228 228 227 226 226 226 229 234 237 238 240 243 246
235 235 233 230 228 226 224 222 223 226 227 225 227 230 228 226 226 225 226 229 230 230 228 225 226 225 222 222 224 227 229 228 226 225 225 227 233 237 239 242 243 242
231 234 233 232 230 226 224 224 226 226 226 225 225 227 227 226 223 223 226 230 231 231 229 227 224 220 219 221 224 227 229 228 226 226 227 228 233 238 241 242 240 236
227 230 232 233 233 228 224 224 226 226 225 225 225 225 226 225 221 222 227 228 229 232 231 227 223 218 218 221 223 227 229 230 229 229 229 231 233 237 240 241 238 233
225 227 230 234 235 231 226 223 224 226 224 224 225 226 226 226 223 224 227 226 226 231 232 228 224 220 220 222 224 227 230 232 232 232 232 233 234 236 237 238 236 232
224 226 229 234 235 234 229 224 223 224 224 224 225 226 226 226 225 226 229 228 228 231 232 232 229 225 224 225 226 227 229 232 233 234 234 233 234 235 236 236 234 232
225 226 229 233 236 235 232 227 224 223 224 225 225 225 226 226 226 228 231 231 233 234 234 235 234 229 227 227 227 226 226 229 232 234 235 236 237 238 238 237 234 233
225 228 231 234 235 235 233 230 227 225 224 226 225 225 226 227 226 229 231 232 233 234 233 235 237 233 230 229 228 226 225 228 231 233 235 239 241 242 242 240 238 236
226 229 232 235 236 235 235 233 230 227 225 225 226 226 226 227 227 227 230 232 233 232 232 234 238 238 235 232 230 228 227 229 231 232 234 238 242 244 244 243 241 239
228 229 232 236 237 236 235 235 234 230 226 225 225 224 225 226 226 226 229 231 232 234 234 234 237 240 239 236 234 232 231 231 232 232 233 235 239 242 243 244 243 241
228 229 233 237 238 237 237 237 236 234 230 227 225 224 223 224 224 224 227 229 231 234 235 235 236 238 240 239 237 235 234 234 234 234 233 234 236 239 240 242 243 241
229 229 232 236 237 236 236 237 238 236 233 230 227 226 225 224 224 224 226 228 229 232 234 233 232 234 236 237 237 235 235 236 236 237 236 235 236 238 238 239 241 240
230 231 233 236 236 234 234 237 238 236 234 231 228 226 225 223 222 223 226 227 228 231 232 231 229 231 233 234 234 233 234 235 236 238 239 238 238 238 238 238 239 239
233 234 236 238 237 235 234 235 236 234 231 230 228 226 225 223 221 221 225 226 227 230 231 230 229 230 233 235 235 233 232 233 234 236 239 240 239 239 238 238 238 239
233 235 236 238 238 237 236 234 234 233 230 228 228 228 228 227 226 225 227 227 227 228 229 229 229 231 234 237 237 235 233 233 233 235 238 241 241 240 240 239 237 237
234 234 236 238 238 239 238 235 233 233 232 229 229 230 228 227 227 228 229 228 227 227 228 229 229 230 233 237 238 237 235 234 237 239 241 243 243 243 243 241 239 237
235 235 236 237 239 239 238 236 234 235 234 230 228 230 229 226 226 226 227 227 226 227 229 230 230 231 234 237 237 238 238 239 242 242 242 243 244 246 247 246 243 241
238 236 233 233 236 236 234 233 233 235 236 233 229 229 228 228 227 226 225 225 227 230 232 231 230 232 235 237 237 238 240 242 244 242 241 241 244 247 248 248 249 248
238 236 231 228 229 230 227 227 229 233 235 233 229 229 228 227 227 227 228 229 231 234 235 233 230 231 235 235 235 237 238 240 242 241 240 241 242 242 242 244 248 249
236 233 228 224 222 221 223 226 229 233 236 233 230 230 229 228 227 228 230 233 235 237 236 234 232 233 234 233 233 234 236 238 239 238 238 240 242 241 242 244 244 246
233 228 226 224 221 219 221 224 227 228 228 229 230 230 229 227 226 227 230 235 237 237 236 235 235 235 235 234 233 234 235 237 237 237 239 242 243 242 244 244 242 243
228 222 221 224 224 223 222 224 226 222 220 223 229 231 231 229 227 227 231 235 238 237 235 234 234 235 236 236 235 235 236 237 238 238 241 243 243 241 240 240 239 240
222 217 215 218 220 219 219 222 224 222 221 226 229 230 232 233 231 230 232 234 234 232 231 231 233 235 237 236 236 235 235 236 238 239 241 243 243 242 239 236 237 239